Location: Jetmore Motorplex
(37.9889°N, 99.8876°W)
Time: 05:29:04
(UTC+00:00)

Cosmos 1943 - Pass Details

Date: 17 February 2020
Orbit: 832 x 851 km, 71.0° (Epoch: 30 March)

Event Time Altitude Azimuth Distance (km) Brightness Sun altitude
Rises 11:43:14 0° 192° (SSW) 3,360 6.2 -21.2°
Reaches altitude 10° 11:45:40 10° 189° (S) 2,430 5.5 -20.7°
Maximum altitude 11:51:11 65° 109° (ESE) 911 3.5 -19.6°
Drops below altitude 10° 11:56:44 10° 28° (NNE) 2,453 5.9 -18.5°
Sets 11:59:12 0° 26° (NNE) 3,393 6.7 -18.1°
